Regional Weather Roundup
Issued by NWS Bismarck, ND

Home | Current Version | Previous Version | Text Only | Print | Product List | Glossary On
Versions: 1 2 3 4 5 6 7 8 9 10 11 12 13 14 15 16 17 18 19 20 21 22 23 24 25 26 27 28 29 30 31 32 33 34 35 36 37 38 39 40 41 42 43 44 45 46 47 48 49 50
000
ASUS43 KBIS 281202
RWRBIS

NWR BROADCAST TEXT
NATIONAL WEATHER SERVICE BISMARCK ND
700 AM CDT SAT MAY 28 2016

NOTE: "FAIR" INDICATES FEW OR NO CLOUDS BELOW 12,000 FEET WITH NO
SIGNIFICANT WEATHER AND/OR OBSTRUCTIONS TO VISIBILITY.


CITY           SKY/WX    TMP DP  RH WIND       PRES   REMARKS
WILLISTON      CLOUDY    55  51  86 E9        29.89S
MINOT          CLOUDY    56  53  90 N7        29.89R
MINOT AFB      NOT AVBL
BISMARCK       CLOUDY    57  55  93 NE9       29.87R FOG
DICKINSON      FOG       48  48 100 NE8       29.85S VSB<1/4
GARRISON         N/A     56  54  93 NE7       29.88R
HETTINGER ARPT CLOUDY    45  43  93 CALM      29.87S
JAMESTOWN      CLOUDY    59  58  96 N9        29.82S FOG
CARRINGTON     CLOUDY    57  55  94 N10       29.87S FOG
HAZEN          PTSUNNY   55  55 100 NE5       29.89F FOG
MANDAN         CLOUDY    55  55 100 NE7       29.87S FOG
OAKES            N/A    N/A N/A N/A MISG        N/A
STANLEY        CLOUDY    52  52 100 E9        29.92S FOG
$$

CITY           SKY/WX    TMP DP  RH WIND       PRES   REMARKS
GRAND FORKS    CLOUDY    62  56  80 CALM      29.83R
GRAND FORKS AF NOT AVBL
DEVILS LAKE    CLOUDY    56  54  93 N7        29.87S
FARGO          CLOUDY    61  56  83 NE7       29.80F
CAVALIER       CLOUDY    57  57 100 CALM      29.86S FOG
GRAFTON        CLOUDY    61  61 100 CALM      29.86S
GWINNER        CLOUDY    59  59 100 NE8       29.81R
LANGDON        FOG       55  55 100 N9        29.87S VSB<1/4
$$

CITY           SKY/WX    TMP DP  RH WIND       PRES   REMARKS
ABERDEEN       CLOUDY    60  57  89 NE6       29.79S FOG
MOBRIDGE       PTCLDY    54  50  86 N6        29.80R
BUFFALO          N/A     49  45  86 W5        29.81S
RAPID CITY     CLEAR     45  43  93 NW7       29.88R
GLASGOW        CLOUDY    53  51  93 SE12      29.85S FOG
SIDNEY         CLOUDY    56  54  93 NE7       29.87S
WOLF POINT     CLOUDY    56  53  90 E12       29.86S
GLENDIVE       CLOUDY    52  48  87 NE5       29.88S
MILES CITY     CLOUDY    52  48  86 SW6       29.88R
BAKER          CLOUDY    50  47  89 S3        29.88R
$$

CITY           SKY/WX    TMP DP  RH WIND       PRES   REMARKS
BILLINGS       CLOUDY    50  44  80 W8        29.95R
GREAT FALLS    CLEAR     40  33  76 S10       29.95S
$$




USA.gov is the U.S. government's official web portal to all federal, state and local government web resources and services.